CW0565 Weather Reports


time (UTC)temp
F
wind
direction
speed
knots
gust
knots
rain 1hr
in
rain 24hr
in
rain mn
in
humidity
%
barometer
mb
20260509161510 55 198 7.0 12.2 0.00 0.00 0.00 50 1019.0
20260509160009 55 197 7.8 12.2 0.00 0.00 0.00 50 1019.3
20260509154510 55 203 7.0 10.4 0.00 0.00 0.00 48 1019.4
20260509153027 55 188 4.3 11.3 0.00 0.00 0.00 49 1019.5
20260509151509 55 203 7.0 14.8 0.00 0.00 0.00 48 1019.7
20260509150010 55 186 6.1 12.2 0.00 0.00 0.00 49 1019.8
20260509144510 54 211 7.8 14.8 0.00 0.00 0.00 49 1019.9
20260509143010 55 192 7.8 12.2 0.00 0.00 0.00 47 1020.1
20260509141510 55 188 6.1 14.8 0.00 0.00 0.00 45 1020.3
20260509140009 55 194 7.0 14.8 0.00 0.00 0.00 44 1020.5
20260509134510 54 158 10.4 17.4 0.00 0.00 0.00 45 1020.7
20260509133009 55 207 7.8 13.9 0.00 0.00 0.00 45 1020.7
20260509131509 56 188 6.1 13.9 0.00 0.00 0.00 44 1020.8
20260509130011 56 207 7.0 13.0 0.00 0.00 0.00 45 1020.9
20260509124510 55 201 8.7 13.9 0.00 0.00 0.00 46 1021.0
20260509123009 55 195 8.7 13.9 0.00 0.00 0.00 51 1021.0
20260509121509 55 194 7.0 15.6 0.00 0.00 0.00 50 1021.1
20260509120009 55 169 8.7 15.6 0.00 0.00 0.00 49 1021.3
20260509114510 56 196 8.7 14.8 0.00 0.00 0.00 48 1021.3
20260509113009 56 173 7.0 16.5 0.00 0.00 0.00 45 1021.4
20260509111510 57 188 6.1 12.2 0.00 0.00 0.00 43 1021.5
20260509110010 56 195 6.1 11.3 0.00 0.00 0.00 42 1021.6
20260509104509 56 215 7.8 13.9 0.00 0.00 0.00 39 1021.6
20260509103009 56 191 6.1 11.3 0.00 0.00 0.00 39 1021.7
20260509101513 57 186 7.0 10.4 0.00 0.00 0.00 36 1021.8
20260509100009 58 195 3.5 10.4 0.00 0.00 0.00 35 1021.9
20260509094512 56 199 7.8 12.2 0.00 0.00 0.00 38 1021.9
20260509093010 56 178 4.3 11.3 0.00 0.00 0.00 36 1021.9
20260509090010 54 211 5.2 10.4 0.00 0.00 0.00 41 1022.1
20260509084509 53 156 6.1 11.3 0.00 0.00 0.00 45 1022.2
20260509083011 52 178 5.2 7.0 0.00 0.00 0.00 52 1022.4
20260509081511 50 193 2.6 7.8 0.00 0.00 0.00 60 1022.9
20260509080009 49 15 0.9 3.5 0.00 0.00 0.00 67 1022.7
20260509074511 48 15 0.0 0.9 0.00 0.00 0.00 66 1022.9
20260509073024 47 15 0.0 0.0 0.00 0.00 0.00 68 1022.9
20260509071509 46 15 0.0 0.9 0.00 0.00 0.00 68 1023.0
20260509070010 46 15 0.0 0.9 0.00 0.00 0.00 69 1023.0
20260509063022 45 15 0.0 3.5 0.00 0.00 0.00 71 1023.0
20260509061511 44 15 0.0 3.5 0.00 0.00 0.00 71 1022.9
20260509054509 43 15 1.7 4.3 0.00 0.00 0.00 72 1022.8
20260509053010 43 16 0.9 4.3 0.00 0.00 0.00 73 1022.8
20260509051513 43 15 0.9 5.2 0.00 0.00 0.00 73 1022.7
20260509050009 43 16 1.7 4.3 0.00 0.00 0.00 74 1022.6
20260509044509 43 15 1.7 7.0 0.00 0.00 0.00 73 1022.4
20260509043022 43 15 0.9 7.8 0.00 0.00 0.00 75 1022.4
20260509041514 43 5 3.5 7.0 0.00 0.00 0.00 76 1022.2
20260509034510 43 360 2.6 7.0 0.00 0.00 0.00 76 1022.4
20260509033010 43 5 3.5 8.7 0.00 0.00 0.00 76 1022.4
20260509031512 43 355 3.5 8.7 0.00 0.00 0.00 77 1022.4
20260509030010 43 10 3.5 7.8 0.00 0.00 0.00 78 1022.4
20260509024511 43 355 3.5 7.0 0.00 0.00 0.00 79 1022.5
20260509023010 43 355 1.7 5.2 0.00 0.00 0.00 80 1022.6
20260509021510 43 355 1.7 5.2 0.00 0.00 0.00 80 1022.5
20260509020009 43 5 0.9 4.3 0.00 0.00 0.00 80 1022.6
20260509014520 43 9 1.7 4.3 0.00 0.00 0.00 81 1022.7
20260509013010 43 5 0.9 4.3 0.00 0.00 0.00 81 1022.6
20260509011511 44 5 0.9 4.3 0.00 0.00 0.00 80 1022.7
20260509010009 44 9 0.0 5.2 0.00 0.00 0.00 80 1022.7
20260509004512 44 23 0.9 3.5 0.00 0.00 0.00 79 1022.7
20260509003009 44 26 0.9 3.5 0.00 0.00 0.00 79 1022.9
20260509001511 45 171 1.7 3.5 0.00 0.00 0.00 78 1022.9
20260509000009 45 171 0.0 3.5 0.00 0.00 0.00 78 1022.9
20260508234509 45 171 0.0 0.9 0.00 0.00 0.00 78 1022.9
20260508233010 46 171 0.0 0.0 0.00 0.00 0.00 77 1023.0
20260508231509 46 171 0.0 1.7 0.00 0.00 0.00 76 1023.0
20260508230009 47 171 0.0 0.9 0.00 0.00 0.00 75 1023.0
20260508224518 47 171 0.0 0.9 0.00 0.00 0.00 75 1022.9
20260508223009 47 171 0.0 2.6 0.00 0.00 0.00 73 1023.0
20260508221505 48 171 0.0 0.9 0.00 0.00 0.00 73 1023.0
20260508220010 48 171 0.0 0.0 0.00 0.00 0.00 72 1023.0
20260508214522 49 171 0.0 0.0 0.00 0.00 0.00 71 1023.1
20260508213010 49 171 0.0 0.0 0.00 0.00 0.00 71 1023.1
20260508211514 49 171 0.0 0.0 0.00 0.00 0.00 70 1023.0
20260508210021 50 171 0.0 0.0 0.00 0.00 0.00 69 1023.1
20260508204510 50 171 0.0 0.0 0.00 0.00 0.00 69 1023.1
20260508203010 50 171 0.0 0.0 0.00 0.00 0.00 69 1023.1
20260508201510 50 171 0.0 0.0 0.00 0.00 0.00 68 1023.1
20260508200011 51 171 0.0 1.7 0.00 0.00 0.00 68 1023.0
20260508194510 51 171 0.0 3.5 0.00 0.00 0.00 68 1022.9
20260508193010 51 171 0.0 3.5 0.00 0.00 0.00 66 1022.8
20260508191509 51 171 0.0 4.3 0.00 0.00 0.00 62 1022.7
20260508190010 52 171 2.6 5.2 0.00 0.00 0.00 59 1022.6
20260508184514 52 171 0.0 4.3 0.00 0.00 0.00 59 1022.6
20260508183010 52 171 2.6 6.1 0.00 0.00 0.00 57 1022.6
20260508181509 53 153 2.6 7.0 0.00 0.00 0.00 50 1022.5
20260508180010 53 144 3.5 7.0 0.00 0.00 0.00 47 1022.4
20260508174512 53 138 5.2 11.3 0.00 0.00 0.00 46 1022.3
20260508173009 54 142 6.1 9.6 0.00 0.00 0.00 47 1022.3
20260508171510 55 184 2.6 7.0 0.00 0.00 0.00 43 1022.1
20260508170010 55 165 4.3 8.7 0.00 0.00 0.00 44 1022.0
20260508164509 56 217 2.6 7.8 0.00 0.00 0.00 40 1022.0
20260508163015 56 171 4.3 8.7 0.00 0.00 0.00 38 1022.0